Weather History for K4M9 - November, 2013

Change the Weather History Date:

Wednesday, November 6, 2013

  Actual Average (KARG) Record (KARG)
Temperature  
Mean Temperature 53 °F -  
Max Temperature 62 °F 59 °F 78 °F (1999)
Min Temperature 42 °F 42 °F 30 °F (2010)
Degree Days  
Heating Degree Days 12    
Growing Degree Days 3 (Base 50)    
Moisture  
Dew Point 50 °F    
Average Humidity 85    
Maximum Humidity 100    
Minimum Humidity 68    
Precipitation  
Precipitation 0.12 in - - ()
Sea Level Pressure  
Sea Level Pressure 30.11 in    
Wind  
Wind Speed 14 mph (SW)    
Max Wind Speed 23 mph    
Max Gust Speed 29 mph    
Visibility 8 miles    
Events Rain    
Averages and records for this station are not official NWS values.
T = Trace of Precipitation, MM = Missing Value Source: NWS Daily Summary

Daily Weather History Graph

Daily Weather History Graph

Search for Another Location

Airport or City:

Trip Planner

Search our weather history database for the weather conditions in past years. The results will help you decide how hot, cold, wet, or windy it might be!

Date:

Astronomy

Nov. 06, 2013 Rise Set
Actual Time 6:30 AM CST 5:00 PM CST
Civil Twilight 6:04 AM CST 5:27 PM CST
Nautical Twilight 5:33 AM CST 5:58 PM CST
Astronomical Twilight 5:03 AM CST 6:28 PM CST
Moon 9:43 AM CST (11/6) 8:07 PM CST (11/6)
Length of Visible Light 11h 23m
Length of Day
10h 30m
Waxing Crescent, 14% of the Moon is Illuminated
Nov 6
Waxing Crescent
Nov 9
First Quarter
Nov 17
Full
Nov 25
Last Quarter
Dec 2
New

Hourly Weather History & Observations

Time (CST) Temp. Windchill Dew Point Humidity Pressure Visibility Wind Dir Wind Speed Gust Speed Precip Events Conditions
12:15 AM 62.6 °F - 51.8 °F 68% 30.10 in 10.0 mi South 13.8 mph 21.9 mph N/A   Mostly Cloudy
12:35 AM 62.6 °F - 51.8 °F 68% 30.10 in 10.0 mi South 15.0 mph - N/A   Overcast
12:55 AM 62.6 °F - 51.8 °F 68% 30.09 in 10.0 mi South 13.8 mph 19.6 mph N/A   Mostly Cloudy
1:15 AM 60.8 °F - 51.8 °F 72% 30.08 in 10.0 mi South 13.8 mph - N/A   Overcast
1:35 AM 60.8 °F - 51.8 °F 72% 30.07 in 10.0 mi SSE 12.7 mph 18.4 mph N/A   Overcast
1:55 AM 60.8 °F - 50.0 °F 68% 30.06 in 10.0 mi South 12.7 mph 20.7 mph N/A   Overcast
2:15 AM 60.8 °F - 50.0 °F 68% 30.05 in 10.0 mi SSE 15.0 mph 21.9 mph N/A   Mostly Cloudy
2:35 AM 60.8 °F - 50.0 °F 68% 30.04 in 10.0 mi SSE 17.3 mph 26.5 mph N/A   Mostly Cloudy
2:55 AM 60.8 °F - 50.0 °F 68% 30.03 in 10.0 mi SSE 17.3 mph 23.0 mph N/A   Overcast
3:15 AM 60.8 °F - 50.0 °F 68% 30.04 in 10.0 mi South 16.1 mph 24.2 mph N/A   Overcast
3:35 AM 60.8 °F - 50.0 °F 68% 30.03 in 10.0 mi South 18.4 mph 24.2 mph N/A   Overcast
3:55 AM 59.0 °F - 51.8 °F 77% 30.03 in 8.0 mi South 13.8 mph 20.7 mph N/A Rain Light Rain
4:15 AM 59.0 °F - 53.6 °F 82% 30.03 in 5.0 mi South 15.0 mph 21.9 mph N/A Rain Light Rain
4:35 AM 57.2 °F - 53.6 °F 88% 30.03 in 3.0 mi South 12.7 mph 21.9 mph 0.03 in Rain Light Rain
4:55 AM 57.2 °F - 53.6 °F 88% 30.03 in 3.0 mi South 15.0 mph 21.9 mph 0.04 in Rain Light Rain
5:15 AM 57.2 °F - 53.6 °F 88% 30.04 in 9.0 mi South 15.0 mph - N/A   Overcast
5:35 AM 57.2 °F - 53.6 °F 88% 30.03 in 3.0 mi South 16.1 mph 23.0 mph 0.01 in Rain Rain
5:55 AM 55.4 °F - 53.6 °F 94% 30.03 in 4.0 mi South 13.8 mph 21.9 mph 0.03 in Rain Light Rain
6:15 AM 55.4 °F - 53.6 °F 94% 30.03 in 3.0 mi South 16.1 mph 24.2 mph N/A Rain Light Rain
6:35 AM 55.4 °F - 53.6 °F 94% 30.03 in 1.5 mi South 15.0 mph 19.6 mph N/A   Overcast
6:55 AM 55.4 °F - 55.4 °F 100% 30.03 in 1.8 mi South 12.7 mph - 0.01 in   Overcast
7:15 AM 55.4 °F - 55.4 °F 100% 30.03 in 3.0 mi South 12.7 mph 21.9 mph N/A   Mostly Cloudy
7:35 AM 55.4 °F - 55.4 °F 100% 30.03 in 8.0 mi South 11.5 mph - N/A   Mostly Cloudy
7:55 AM 55.4 °F - 55.4 °F 100% 30.04 in 3.0 mi South 11.5 mph 16.1 mph N/A Rain Light Rain
8:15 AM 55.4 °F - 55.4 °F 100% 30.05 in 1.5 mi SSW 12.7 mph 16.1 mph N/A Rain Light Rain
8:35 AM 57.2 °F - 57.2 °F 100% 30.06 in 2.5 mi SSW 11.5 mph - N/A   Scattered Clouds
8:55 AM 57.2 °F - 57.2 °F 100% 30.06 in 10.0 mi SSW 18.4 mph 24.2 mph N/A   Scattered Clouds
9:15 AM 57.2 °F - 57.2 °F 100% 30.04 in 5.0 mi South 16.1 mph 23.0 mph N/A   Partly Cloudy
9:35 AM 59.0 °F - 57.2 °F 94% 30.03 in 10.0 mi South 19.6 mph 26.5 mph N/A   Clear
9:55 AM 59.0 °F - 57.2 °F 94% 30.02 in 10.0 mi SSW 23.0 mph 28.8 mph N/A   Clear
10:15 AM 59.0 °F - 57.2 °F 94% 30.02 in 10.0 mi SSW 20.7 mph 28.8 mph N/A   Clear
10:35 AM 59.0 °F - 59.0 °F 100% 30.02 in 10.0 mi SSW 20.7 mph 26.5 mph N/A   Clear
10:55 AM 60.8 °F - 59.0 °F 94% 30.02 in 10.0 mi SSW 18.4 mph 21.9 mph N/A   Clear
11:15 AM 62.6 °F - 59.0 °F 88% 30.04 in 10.0 mi SW 18.4 mph 21.9 mph N/A   Unknown
11:35 AM 62.6 °F - 59.0 °F 88% 30.04 in 10.0 mi WSW 12.7 mph - N/A   Unknown
11:55 AM 62.6 °F - 59.0 °F 88% 30.04 in 10.0 mi WSW 11.5 mph - N/A   Mostly Cloudy
12:15 PM 62.6 °F - 60.8 °F 94% 30.04 in 10.0 mi WSW 10.4 mph - N/A   Mostly Cloudy
12:35 PM 62.6 °F - 60.8 °F 94% 30.03 in 5.0 mi WSW 9.2 mph - N/A   Mostly Cloudy
12:55 PM 62.6 °F - 62.6 °F 100% 30.03 in 2.5 mi SW 10.4 mph - N/A   Mostly Cloudy
1:15 PM 62.6 °F - 62.6 °F 100% 30.03 in 2.0 mi SW 9.2 mph - N/A   Overcast
1:35 PM 60.8 °F - 60.8 °F 100% 30.03 in 8.0 mi SSW 6.9 mph - N/A   Mostly Cloudy
1:55 PM 55.4 °F - 55.4 °F 100% 30.05 in 10.0 mi WNW 15.0 mph 21.9 mph N/A   Mostly Cloudy
2:15 PM 55.4 °F - 53.6 °F 94% 30.06 in 3.0 mi NW 11.5 mph 20.7 mph N/A Rain Light Rain
2:35 PM 53.6 °F - 53.6 °F 100% 30.08 in 1.0 mi NNW 11.5 mph 16.1 mph 0.04 in Rain Rain
3:35 PM 50.0 °F - 48.2 °F 94% 30.12 in 8.0 mi NW 17.3 mph 24.2 mph N/A   Overcast
5:15 PM 48.2 °F - 44.6 °F 87% 30.18 in 10.0 mi NW 15.0 mph - N/A   Overcast
5:55 PM 46.4 °F 38.7 °F 42.8 °F 87% 30.19 in 10.0 mi NNW 20.7 mph 25.3 mph N/A   Overcast
6:15 PM 46.4 °F 40.4 °F 41.0 °F 81% 30.21 in 10.0 mi NNW 13.8 mph 21.9 mph N/A   Overcast
6:35 PM 46.4 °F 40.1 °F 41.0 °F 81% 30.22 in 10.0 mi NNW 15.0 mph 20.7 mph N/A   Overcast
6:55 PM 46.4 °F 40.7 °F 41.0 °F 81% 30.22 in 10.0 mi North 12.7 mph 18.4 mph N/A   Overcast
7:15 PM 46.4 °F 40.4 °F 41.0 °F 81% 30.22 in 10.0 mi North 13.8 mph - N/A   Overcast
7:35 PM 46.4 °F 40.7 °F 41.0 °F 81% 30.23 in 10.0 mi North 12.7 mph - N/A   Overcast
7:55 PM 46.4 °F 41.1 °F 39.2 °F 76% 30.24 in 10.0 mi NNW 11.5 mph - N/A   Overcast
8:15 PM 46.4 °F 41.5 °F 39.2 °F 76% 30.24 in 10.0 mi NNW 10.4 mph - N/A   Overcast
8:35 PM 46.4 °F 40.1 °F 39.2 °F 76% 30.25 in 10.0 mi NNW 15.0 mph - N/A   Overcast
8:55 PM 46.4 °F 39.5 °F 39.2 °F 76% 30.26 in 10.0 mi NNW 17.3 mph 21.9 mph N/A   Overcast
9:15 PM 46.4 °F 41.1 °F 39.2 °F 76% 30.27 in 10.0 mi NNW 11.5 mph - N/A   Overcast
9:35 PM 46.4 °F 40.7 °F 37.4 °F 71% 30.27 in 10.0 mi NNW 12.7 mph 19.6 mph N/A   Overcast
9:55 PM 44.6 °F 36.9 °F 37.4 °F 76% 30.28 in 10.0 mi North 18.4 mph 21.9 mph N/A   Overcast
10:15 PM 44.6 °F 37.8 °F 35.6 °F 71% 30.29 in 10.0 mi North 15.0 mph 25.3 mph N/A   Overcast
10:35 PM 44.6 °F 38.1 °F 37.4 °F 76% 30.30 in 10.0 mi North 13.8 mph 17.3 mph N/A   Overcast
10:55 PM 44.6 °F 37.8 °F 35.6 °F 71% 30.31 in 10.0 mi NNW 15.0 mph 21.9 mph N/A   Overcast
11:15 PM 44.6 °F 38.1 °F 35.6 °F 71% 30.31 in 10.0 mi NNW 13.8 mph 19.6 mph N/A   Overcast
11:35 PM 44.6 °F 40.7 °F 35.6 °F 71% 30.31 in 10.0 mi NW 6.9 mph - N/A   Partly Cloudy
11:55 PM 42.8 °F 38.6 °F 35.6 °F 76% 30.31 in 10.0 mi NW 6.9 mph - N/A   Clear